Theta_e
305 305 305 305 306 306 306 306 306 306 306 306 306 308 309 312 311 311 313 312 316 316 316 316 318 319 321 320 320 319 318 318 320 336 339 337 337 342 342 343 340 340 342 343 342
305 305 305 305 306 306 306 307 307 307 307 306 307 308 309 312 311 315 313 314 316 317 317 317 315 319 317 320 319 318 317 319 321 337 335 336 337 343 341 345 343 342 340 340 340
305 305 305 306 306 306 306 307 307 307 307 307 308 308 310 311 320 319 321 316 316 318 318 318 317 317 318 318 319 319 318 320 323 327 333 335 338 340 339 339 345 345 344 339 338
304 305 305 306 306 306 306 307 307 307 307 307 311 309 311 314 324 324 321 321 318 318 316 316 317 318 318 317 317 318 319 320 323 325 328 326 338 339 338 341 340 336 341 341 340
303 304 305 305 305 306 306 307 307 307 307 310 313 309 313 321 316 318 322 319 318 317 316 316 320 320 320 319 317 317 319 320 320 320 325 326 332 339 340 337 336 339 338 341 339
303 303 304 304 305 306 306 307 307 307 308 313 314 309 315 317 317 322 322 318 317 316 317 318 320 320 320 318 318 318 320 320 319 319 321 325 334 338 337 338 339 339 336 338 339
303 303 304 304 305 306 306 307 307 307 313 311 311 311 319 318 321 323 325 321 317 317 318 320 322 321 319 320 320 322 321 319 322 321 321 323 323 329 338 338 340 342 341 340 339
304 304 305 305 305 306 307 308 307 311 313 310 309 317 320 312 318 319 324 323 320 319 320 322 323 320 322 322 323 321 321 320 320 321 319 322 320 323 336 337 338 340 340 339 338
304 305 305 306 306 306 307 308 309 315 312 311 313 321 321 319 320 321 322 325 322 321 322 322 323 320 323 322 320 321 321 321 321 321 321 320 320 323 332 337 338 337 337 339 340
303 305 306 306 307 306 308 311 317 317 316 319 318 320 321 323 321 322 321 323 322 321 322 322 322 322 320 320 321 321 322 320 320 321 320 322 322 323 324 327 337 334 339 347 346
303 304 305 307 308 307 308 314 320 322 320 321 320 321 320 323 322 321 321 322 324 321 320 320 321 321 321 321 322 322 322 322 323 325 323 322 323 325 325 328 330 340 341 349 347
301 303 305 307 309 308 311 316 315 314 313 317 320 324 323 323 322 321 320 320 324 320 320 320 322 321 323 323 324 323 322 322 324 326 325 324 325 328 326 327 329 347 343 342 344
301 302 304 307 310 314 312 314 314 314 316 318 317 318 323 325 323 323 321 319 324 324 319 320 323 324 324 324 325 323 326 324 324 323 322 327 326 327 325 325 342 346 344 340 338
301 302 303 305 312 309 313 313 312 313 320 322 321 319 319 324 323 321 322 320 322 324 321 320 322 324 325 325 324 325 325 325 323 321 321 325 323 324 324 324 337 342 345 339 336
301 301 302 302 306 311 314 312 312 314 331 327 322 321 318 323 320 318 321 320 322 323 323 322 322 323 324 326 324 324 326 324 326 325 322 322 322 322 326 325 343 342 346 343 343
301 302 300 304 305 310 311 312 313 320 329 327 324 321 320 322 323 320 319 320 321 323 323 323 323 323 323 325 325 326 325 323 326 324 324 322 324 323 323 337 340 338 342 339 337
301 302 302 301 307 310 312 313 316 320 322 325 325 323 323 323 323 322 319 318 320 321 323 323 324 323 324 324 324 324 323 326 327 325 326 324 325 324 331 340 339 337 337 335 333
300 302 304 306 307 311 313 314 318 318 319 322 324 324 324 323 323 323 321 317 320 321 322 323 325 324 324 323 323 323 321 326 329 330 327 328 330 327 341 339 336 335 334 333 332
300 303 305 307 312 310 313 315 317 317 318 320 319 323 325 324 323 323 323 320 320 321 321 324 325 325 323 324 322 322 324 323 327 327 328 330 337 337 341 339 337 335 334 333 331
300 303 308 311 311 313 313 314 316 316 317 317 318 321 323 324 324 323 323 324 322 322 321 322 324 326 325 322 323 322 325 326 326 329 332 330 336 340 340 340 337 336 334 333 331
304 311 315 313 313 313 314 314 315 315 316 318 317 317 318 321 324 323 325 325 324 323 321 321 322 324 324 325 323 322 322 325 327 327 329 332 333 331 337 338 337 335 334 333 331
306 311 314 314 316 316 315 315 314 316 317 317 317 317 318 319 322 322 323 324 326 324 323 323 322 325 324 325 325 322 322 323 326 331 333 335 337 334 334 334 336 335 335 333 332
306 310 310 314 316 316 316 317 317 318 317 317 318 317 317 318 322 322 321 322 321 325 325 324 324 325 328 326 327 323 324 325 325 331 333 338 336 331 333 332 334 335 335 334 332
305 311 311 314 314 316 316 316 316 316 318 320 318 317 317 317 319 320 319 321 321 322 334 328 329 324 326 327 329 328 326 324 326 329 328 330 331 334 337 338 338 338 337 336 335
306 309 312 312 315 315 316 316 319 319 317 317 319 320 317 316 317 319 319 319 321 324 328 327 329 334 327 329 328 329 329 324 323 329 328 328 331 338 339 337 340 335 334 337 337
305 309 309 309 312 313 314 315 316 318 319 319 318 320 321 317 317 320 321 319 321 326 325 330 328 333 332 328 325 326 327 328 327 329 328 330 331 335 336 335 337 336 335 336 336
304 304 308 310 310 310 311 312 312 313 315 316 316 318 321 322 321 319 317 318 319 322 321 328 330 331 329 329 328 328 327 329 330 329 327 328 336 336 337 337 334 331 334 337 333
Wind_Speed
19 19 18 18 19 20 19 20 20 19 19 19 17 15 14 15 15 14 10 16 9 13 15 9 13 11 15 6 12 7 3 8 13 4 6 6 6 4 10 15 26 4 17 22 31
20 20 20 20 20 20 21 20 20 20 20 19 17 14 13 14 16 16 29 18 14 12 20 14 10 13 4 6 5 4 2 9 14 2 4 3 11 15 14 17 26 11 17 26 29
21 21 21 21 21 21 21 22 21 22 21 18 16 13 10 10 5 9 10 20 23 20 14 17 21 9 8 7 9 8 9 12 17 5 9 7 20 5 19 14 6 10 5 5 16
23 23 23 23 23 23 23 23 23 23 20 17 14 11 7 2 3 3 1 9 20 20 13 9 7 7 6 9 9 8 13 13 14 4 5 7 15 7 10 5 13 9 13 6 10
24 24 25 25 25 25 25 24 24 23 20 16 12 7 2 3 11 20 5 6 18 18 16 10 7 7 7 7 9 9 15 13 12 10 5 2 11 9 7 13 12 7 18 9 7
24 25 25 26 26 26 26 25 25 21 18 13 9 4 2 6 12 19 10 13 14 16 16 16 9 9 8 9 6 11 13 11 10 11 6 3 19 14 15 17 12 15 15 12 11
24 25 26 26 26 26 27 26 24 19 14 10 6 4 6 16 2 12 11 12 16 16 9 25 27 7 7 9 11 9 9 9 6 7 5 4 6 9 22 17 20 18 19 21 20
26 27 28 27 27 27 28 27 20 15 9 6 3 2 8 19 14 27 21 13 11 18 23 25 23 8 4 8 11 9 7 5 8 10 10 4 9 10 23 17 15 21 21 22 24
27 28 29 29 28 29 30 24 18 9 6 4 3 3 9 12 12 20 20 16 17 19 25 23 10 6 5 6 7 6 6 9 13 13 8 8 9 9 17 19 15 14 16 19 5
27 28 30 30 27 30 28 22 9 4 3 3 9 4 9 8 14 21 17 18 13 12 8 5 2 2 4 1 7 10 6 9 11 11 12 7 7 9 10 10 22 17 14 22 20
28 29 30 31 29 25 24 9 2 2 5 8 6 6 15 15 12 15 17 15 11 5 6 7 3 7 11 12 15 12 12 14 11 5 8 9 7 10 9 4 7 18 19 18 21
29 29 30 31 30 14 13 3 8 9 9 15 22 21 35 31 11 9 21 9 7 7 7 6 11 11 14 15 15 16 10 10 8 10 4 9 7 3 5 6 6 18 15 17 14
30 30 30 31 17 5 18 16 13 19 5 12 22 15 19 17 15 9 8 11 8 8 9 11 11 16 17 16 13 10 3 8 8 12 6 4 1 3 10 5 17 16 16 12 18
30 30 29 33 5 22 8 18 20 18 4 8 8 9 13 15 16 14 22 9 9 12 11 9 18 17 15 13 11 5 4 8 12 7 4 3 5 6 8 10 14 16 19 17 19
30 28 27 18 18 10 12 21 22 7 4 4 10 9 11 14 2 18 21 10 15 12 8 14 14 11 16 10 9 7 5 6 8 9 4 12 2 8 5 10 11 16 21 18 18
30 27 28 13 15 12 21 18 11 0 7 5 5 8 10 17 21 3 12 9 9 11 13 11 11 15 18 11 9 5 5 7 4 3 3 10 3 10 7 9 9 15 20 19 18
31 28 24 19 7 10 13 9 2 4 8 6 7 7 9 13 17 19 11 11 11 10 16 15 17 14 11 9 5 5 1 2 3 3 7 8 6 15 8 15 18 19 18 18 17
34 28 22 23 21 11 12 2 5 9 12 12 15 10 12 10 15 16 11 14 12 11 3 11 12 17 11 10 8 7 9 6 6 5 6 7 6 9 11 14 14 15 16 17 16
34 24 14 24 9 8 2 4 6 7 9 9 20 11 7 8 11 16 16 13 14 17 15 5 18 15 15 6 10 9 6 9 4 6 3 4 4 5 14 14 14 13 14 13 14
29 12 13 13 20 15 2 4 6 10 14 13 10 11 11 11 7 10 14 12 15 17 17 14 12 17 11 12 10 11 7 4 1 5 5 7 4 4 10 11 11 11 10 9 11
8 4 6 12 17 2 5 6 9 17 17 7 7 14 18 18 14 12 7 15 12 15 14 15 8 23 12 5 14 4 5 3 4 6 6 3 5 8 14 15 14 13 13 16 13
7 3 11 12 3 4 8 7 6 17 20 16 15 15 15 19 15 11 15 12 16 18 17 11 10 8 17 20 9 11 11 10 5 5 3 6 5 1 13 16 19 19 18 15 15
3 4 9 8 4 7 11 18 19 18 18 18 15 15 17 17 8 5 13 18 23 13 17 11 6 8 10 9 6 8 8 7 5 5 7 5 5 6 5 4 5 14 13 11 10
4 3 3 3 4 7 10 13 16 14 18 17 19 17 18 16 10 13 18 16 23 24 14 17 7 13 13 11 5 3 6 7 7 4 5 6 5 3 4 12 15 20 19 16 11
3 5 4 2 6 8 9 10 14 15 16 19 10 15 17 15 15 16 16 20 23 22 6 8 8 7 11 13 14 8 9 11 9 7 8 9 9 9 10 15 18 22 18 19 18
3 4 6 9 7 9 9 8 14 15 14 15 13 17 18 15 17 13 10 14 14 9 8 8 4 7 8 13 18 15 15 11 9 7 6 9 6 7 6 16 18 19 18 18 17
12 11 4 5 5 6 7 10 15 17 11 12 17 17 19 16 22 24 11 11 10 6 11 6 3 5 7 7 8 14 17 15 9 9 7 9 6 9 7 7 13 15 18 16 14
Wind_Direction
5 1 358 356 351 350 346 343 339 336 332 330 326 320 309 307 302 289 239 237 237 260 258 306 276 256 257 254 265 286 315 280 275 287 223 180 98 27 347 3 341 164 133 139 154
359 356 354 351 348 346 343 339 335 331 329 326 322 318 312 316 314 262 260 246 232 265 230 257 268 235 238 263 260 182 247 256 267 190 223 217 118 138 94 1 288 27 106 140 159
354 352 349 347 345 342 339 336 332 329 326 323 318 313 313 330 318 250 292 227 227 240 246 249 258 275 241 246 257 257 241 261 275 220 193 210 153 117 132 184 197 272 163 240 166
352 350 348 345 341 338 335 333 329 327 324 320 313 305 309 7 251 330 250 222 212 228 239 250 266 268 255 255 259 272 266 264 265 247 200 344 149 102 142 223 138 265 248 164 281
351 348 346 343 339 335 332 329 327 324 320 315 305 293 298 227 247 283 251 174 193 205 217 225 248 249 258 263 269 262 263 267 277 296 223 163 88 125 122 196 177 188 270 188 248
350 348 345 341 337 333 330 327 325 322 317 310 294 263 231 254 265 235 197 184 197 195 217 236 244 235 248 258 258 266 281 256 269 288 312 187 133 122 202 195 175 141 230 274 292
346 344 343 341 336 330 326 323 322 318 312 302 271 208 258 240 130 193 178 200 194 197 214 232 246 266 293 302 271 291 290 304 298 259 262 285 297 161 179 198 162 133 229 254 257
345 344 342 340 335 329 323 321 317 312 302 286 226 163 251 267 289 259 227 182 206 211 229 252 267 265 280 306 321 301 318 310 272 263 256 155 261 284 168 173 184 180 193 214 231
343 342 341 339 334 330 320 320 311 300 291 252 185 198 264 283 217 237 235 204 205 227 234 253 284 239 313 295 315 297 234 253 271 252 203 171 236 253 151 178 194 192 220 214 173
343 341 339 337 334 330 320 325 303 259 276 290 262 274 263 239 210 230 199 221 196 216 236 260 345 291 310 274 240 253 258 269 255 264 175 194 214 246 262 222 202 207 61 104 101
342 340 339 336 334 331 330 352 1 59 227 225 208 242 299 226 229 196 219 224 221 169 217 246 186 233 225 235 242 267 277 278 282 303 144 195 209 247 269 228 169 91 97 106 104
343 340 338 335 334 333 328 274 18 304 292 246 249 248 260 272 269 188 200 200 216 195 206 255 225 233 242 245 245 256 280 288 308 337 90 200 224 226 277 293 136 112 108 121 113
342 341 339 334 332 360 321 302 346 336 282 273 231 230 233 242 250 207 213 205 207 209 212 216 244 223 245 262 267 265 285 310 294 312 325 140 303 283 293 326 105 107 107 94 115
342 340 340 339 340 332 305 2 341 345 295 267 197 232 215 230 258 222 204 198 218 221 220 232 237 253 241 245 258 263 299 289 289 322 278 131 252 251 242 252 104 103 115 123 125
338 337 334 349 302 310 314 334 323 322 327 166 163 174 167 197 143 209 228 204 216 227 192 234 242 249 250 235 230 235 289 269 279 313 304 301 76 266 253 220 115 104 123 123 125
333 329 331 340 306 296 329 328 317 344 249 278 124 158 165 204 225 228 205 214 212 241 252 245 226 233 242 245 207 266 275 297 313 38 343 255 233 278 269 148 134 120 118 117 114
329 320 311 288 239 317 338 320 0 233 297 265 161 181 211 198 206 220 209 228 199 213 246 266 263 257 250 226 235 173 187 321 340 333 250 265 269 256 284 150 141 131 120 121 119
326 318 300 270 275 304 311 355 233 268 237 313 319 214 193 219 199 211 217 212 217 215 219 233 261 254 246 199 178 202 164 164 210 222 260 275 249 270 118 100 101 112 121 125 132
329 324 281 267 252 212 292 201 205 209 269 3 337 324 267 212 216 197 222 218 211 199 224 235 232 260 230 211 148 247 236 199 199 275 339 240 114 4 119 123 126 127 133 141 143
331 306 268 259 213 186 194 251 237 258 309 352 319 305 313 295 237 201 201 219 222 207 201 244 274 272 277 227 195 179 200 199 339 249 241 271 238 193 143 143 135 137 141 127 131
322 283 315 142 177 126 217 216 266 274 284 280 280 290 304 306 310 324 283 223 211 205 202 213 197 267 282 264 204 181 229 218 150 163 196 228 266 188 171 161 162 165 150 145 138
298 261 137 132 121 216 234 261 277 284 295 289 295 298 276 289 297 307 293 284 260 203 217 207 198 236 257 267 241 173 190 183 149 274 216 161 264 335 158 176 177 173 155 143 138
275 275 283 189 231 237 256 265 268 267 262 275 273 280 283 285 302 280 299 300 302 297 202 208 221 224 276 299 319 217 197 181 173 149 220 142 264 232 229 171 149 155 129 93 97
283 280 211 151 238 260 281 289 291 292 292 287 267 272 280 278 253 270 281 292 308 302 288 178 176 201 221 239 233 221 185 207 159 162 211 209 230 193 78 89 90 94 100 89 61
245 257 316 282 229 272 259 264 285 294 296 293 310 267 261 277 276 260 269 287 294 296 264 146 188 177 220 211 248 261 275 214 213 204 180 229 229 162 164 132 125 123 129 148 166
297 352 346 303 303 306 309 303 295 290 292 298 291 317 334 264 250 262 271 268 268 339 348 304 214 166 221 219 227 253 270 265 222 261 209 198 204 169 106 121 140 152 158 166 181
14 340 292 300 296 301 274 283 289 283 297 316 331 327 305 303 331 299 268 263 245 301 303 303 329 144 237 221 217 246 234 252 220 215 219 214 163 130 137 134 149 160 169 167 157